Location: Sungai Bunut
(2.6333°N, 113.7333°E)
Time: 16:31:56
(UTC+00:00)

Altair - Pass Details

Date: 07 December 2023
Orbit: 1501 x 1682 km, 47.2° (Epoch: 24 February)

Event Time Altitude Azimuth Distance (km) Brightness Sun altitude
Rises 19:37:34 0° 201° (SSW) 4,929 10.2 -37.4°
Reaches altitude 10° 19:41:10 10° 193° (SSW) 3,943 9.7 -36.6°
Maximum altitude 19:50:09 36° 130° (SE) 2,446 8.9 -34.6°
Drops below altitude 10° 19:58:57 10° 68° (ENE) 3,882 10.0 -32.6°
Sets 20:02:24 0° 60° (ENE) 4,845 10.5 -31.8°
